This demonstration page uses our WeatherBlox Daily Observations layout. Learn more.

Left ArrowRight Arrow

39.92423, -83.80882

Hourly Observations for January 7, 2022

Temp ( °F °C ) Dew Point ( °F °C ) Humidity (%) Winds ( mph kmh ) Pressure ( in mb ) Visibility ( mi km ) Precip ( " mm )
12:56 am 00:56 Cloudy with Light Snow 14 -10 9 -12.8 80 80 WNW 14 22 30.12 1020 9 14 0.00 0.00
1:56 am 01:56 Cloudy with Light Snow 13 -10.6 9 -12.8 84 84 W 14 22 30.13 1020 9 14 0.00 0.00
2:56 am 02:56 Cloudy with Light Snow 12 -11.1 8 -13.3 84 84 WNW 13 20 30.16 1021 9 14 0.00 0.00
3:56 am 03:56 Cloudy with Light Snow 11 -11.7 8 -13.3 88 88 W 14 22 30.17 1022 9 14 0.00 0.00
4:56 am 04:56 Cloudy with Light Snow 11 -11.7 8 -13.3 88 88 W 13 20 30.19 1022 7 11 0.00 0.00
5:56 am 05:56 Mostly Cloudy with Light Snow 9 -12.8 5 -15 84 84 WSW 12 19 30.22 1023 8 13 0.00 0.00
6:56 am 06:56 Cloudy with Light Snow 8 -13.3 4 -15.6 83 83 W 16 26 30.26 1025 9 14 0.00 0.00
7:04 am 07:04 Cloudy with Light Snow 7 -14 3 -16 85 85 W 15 24 30.32 1027 9 14 0.00 0.00
7:56 am 07:56 Cloudy with Light Snow 8 -13.3 5 -15 87 87 W 10 17 30.26 1025 9 14 0.00 0.00
8:56 am 08:56 Mostly Cloudy with Light Snow 8 -13.3 4 -15.6 83 83 W 12 19 30.29 1026 9 14 0.00 0.00
9:56 am 09:56 Sunny 11 -11.7 6 -14.4 81 81 W 13 20 30.30 1026 10 16 0.00 0.00
10:56 am 10:56 Sunny 13 -10.6 7 -13.9 77 77 W 13 20 30.32 1027 10 16 0.00 0.00
11:56 am 11:56 Sunny 16 -8.9 9 -12.8 74 74 W 14 22 30.33 1027 10 16 0.00 0.00
12:56 pm 12:56 Sunny 18 -7.8 10 -12.2 71 71 W 10 17 30.33 1027 10 16 0.00 0.00
1:56 pm 13:56 Mostly Cloudy 20 -6.7 11 -11.7 68 68 W 10 17 30.32 1027 10 16 0.00 0.00
2:17 pm 14:17 Mostly Cloudy 19 -7 10 -12 68 68 WSW 16 26 30.36 1028 10 16 0.00 0.00
2:56 pm 14:56 Mostly Sunny 21 -6.1 11 -11.7 65 65 WSW 12 19 30.34 1028 10 16 0.00 0.00
3:12 pm 15:12 Mostly Cloudy 21 -6 10 -12 63 63 WSW 13 20 30.36 1028 10 16 0.00 0.00
3:43 pm 15:43 Cloudy 19 -7 10 -12 68 68 W 13 20 30.39 1029 10 16 0.00 0.00
3:56 pm 15:56 Cloudy 21 -6.1 10 -12.2 62 62 WSW 13 20 30.37 1028 10 16 0.00 0.00
4:56 pm 16:56 Mostly Cloudy 19 -7.2 10 -12.2 68 68 WSW 8 13 30.40 1030 10 16 0.00 0.00
5:56 pm 17:56 Clear 17 -8.3 9 -12.8 70 70 WSW 7 11 30.42 1030 10 16 0.00 0.00
6:56 pm 18:56 Mostly Cloudy 16 -8.9 10 -12.2 77 77 WSW 6 9 30.45 1031 10 16 0.00 0.00
7:56 pm 19:56 Mostly Clear 15 -9.4 9 -12.8 77 77 SW 5 7 30.45 1031 10 16 0.00 0.00
8:56 pm 20:56 Mostly Cloudy 14 -10 10 -12.2 84 84 SSW 6 9 30.47 1032 10 16 0.00 0.00
9:56 pm 21:56 Clear 14 -10 10 -12.2 84 84 SSW 6 9 30.48 1032 10 16 0.00 0.00
10:56 pm 22:56 Clear 12 -11.1 10 -12.2 92 92 S 5 7 30.48 1032 10 16 0.00 0.00
11:56 pm 23:56 Clear 11 -11.7 10 -12.2 96 96 S 3 6 30.47 1032 10 16 0.00 0.00

Powered by AerisWeather